Location: *
(45.1333°S, 169.6333°W)
Time: 04:18:19
(UTC+00:00)

Daily predictions for brighter satellites

Satellite Brightness Start Highest point End
(mag) Time Altitude Azimuth Time Altitude Azimuth Time Altitude Azimuth
RESURS DK-1 4.2 04:19:07 10° SSE 04:21:05 13° SE 04:23:01 10° ESE
Cosmos 1656 3.7 04:16:18 10° SSW 04:22:06 76° ESE 04:27:49 10° NNE
USA 306 3.9 04:18:33 10° SW 04:22:18 29° SSE 04:26:02 10° ESE
CZ-2C R/B 3.8 04:17:34 10° N 04:23:03 53° W 04:28:32 10° SSW
Cosmos 1633 4.1 04:20:06 10° NW 04:23:22 36° WSW 04:26:42 10° S
USA 307 4.0 04:22:04 10° SW 04:25:48 29° SSE 04:29:31 10° ESE
USA 281 4.5 04:21:15 10° SE 04:25:55 20° E 04:30:32 10° NE
Landsat 5 4.5 04:28:35 10° NE 04:32:25 29° ESE 04:36:13 10° S
[s.n.52708] 4.1 04:37:59 10° W 04:40:37 29° SSW 04:43:02 11° SE
[s.n.52707] 4.1 04:38:06 10° W 04:40:44 29° SSW 04:43:09 11° SE
[s.n.52703] 4.1 04:38:13 10° W 04:40:51 29° SSW 04:43:16 11° SE
[s.n.52705] 4.1 04:38:20 10° W 04:40:57 28° SSW 04:43:22 11° SE
[s.n.52706] 4.1 04:38:27 10° W 04:41:04 28° SSW 04:43:28 11° SE
[s.n.52701] 4.1 04:38:34 10° W 04:41:11 28° SSW 04:43:35 11° SE
[s.n.52704] 4.1 04:38:40 10° W 04:41:17 28° SSW 04:43:41 11° SE
[s.n.52699] 4.1 04:38:47 10° W 04:41:24 28° SSW 04:43:47 12° SE
USA 215 3.3 04:34:53 10° ENE 04:41:25 66° SSE 04:47:58 10° SW
[s.n.52702] 4.1 04:38:54 10° W 04:41:31 28° SSW 04:43:54 12° SE
[s.n.52697] 4.1 04:39:01 10° W 04:41:38 28° SSW 04:44:01 12° SE
[s.n.52700] 4.2 04:39:07 10° W 04:41:44 28° SSW 04:44:07 12° SE
[s.n.52695] 4.2 04:39:15 10° W 04:41:52 28° SSW 04:44:14 12° SE
[s.n.52698] 4.2 04:39:21 10° W 04:41:58 28° SSW 04:44:20 12° SE
[s.n.52693] 4.2 04:39:29 10° W 04:42:06 28° SSW 04:44:27 12° SE
[s.n.52696] 4.2 04:39:35 10° W 04:42:12 28° SSW 04:44:33 12° SE
[s.n.52691] 4.2 04:39:41 10° W 04:42:19 28° SSW 04:44:40 12° SE
[s.n.52689] 4.2 04:39:49 10° W 04:42:26 28° SSW 04:44:47 12° SE
[s.n.52694] 4.2 04:39:56 10° W 04:42:32 28° SSW 04:44:53 12° SE
[s.n.52692] 4.2 04:40:03 10° W 04:42:39 28° SSW 04:45:00 12° SE
[s.n.52687] 4.2 04:40:09 10° W 04:42:46 28° SSW 04:45:06 12° SE
[s.n.52685] 4.2 04:40:16 10° W 04:42:53 28° SSW 04:45:13 12° SE
[s.n.52690] 4.2 04:40:23 10° W 04:43:00 28° SSW 04:45:19 12° SE
[s.n.52688] 4.2 04:40:30 10° W 04:43:06 28° SSW 04:45:26 12° SE
[s.n.52683] 4.2 04:40:37 10° W 04:43:13 28° SSW 04:45:33 12° SE
[s.n.52686] 4.2 04:40:44 10° W 04:43:21 28° SSW 04:45:39 12° SE
[s.n.52681] 4.2 04:40:51 10° W 04:43:28 28° SSW 04:45:46 12° SE
[s.n.52679] 4.2 04:40:58 10° W 04:43:35 28° SSW 04:45:53 12° SE
[s.n.52684] 4.2 04:41:05 10° W 04:43:41 28° SSW 04:46:00 12° SE
[s.n.52682] 4.2 04:41:12 10° W 04:43:48 28° SSW 04:46:06 12° SE
[s.n.52677] 4.2 04:41:19 10° W 04:43:55 28° SSW 04:46:13 12° SE
[s.n.52680] 4.2 04:41:26 10° W 04:44:03 28° SSW 04:46:20 12° SE
[s.n.52675] 4.2 04:41:33 10° W 04:44:09 28° SSW 04:46:26 12° SE
[s.n.52678] 4.2 04:41:40 10° W 04:44:16 28° SSW 04:46:33 12° SE
Cosmos 1076 Rocket 4.0 04:40:14 10° NNE 04:44:20 40° E 04:48:27 10° SSE
[s.n.52673] 4.2 04:41:48 10° W 04:44:24 28° SSW 04:46:41 12° SE
[s.n.52676] 4.2 04:41:55 10° W 04:44:30 28° SSW 04:46:47 12° SE
Cosmos 1980 Rocket 2.9 04:39:33 10° S 04:44:36 32° SE 04:49:36 10° ENE
[s.n.52671] 4.2 04:42:01 10° W 04:44:38 28° SSW 04:46:54 12° SE
Cosmos 1812 4.0 04:41:48 10° SSE 04:44:42 20° ESE 04:47:35 10° ENE
[s.n.52669] 4.2 04:42:08 10° W 04:44:44 27° SSW 04:47:00 12° SE
[s.n.52674] 4.2 04:42:15 10° W 04:44:52 27° SSW 04:47:07 12° SE
[s.n.52672] 4.2 04:42:22 10° W 04:44:58 27° SSW 04:47:13 12° SE
[s.n.52667] 4.2 04:42:30 10° W 04:45:06 27° SSW 04:47:21 12° SE
[s.n.52665] 4.2 04:42:37 10° W 04:45:13 27° SSW 04:47:28 12° SE
[s.n.52670] 4.2 04:42:44 10° W 04:45:20 27° SSW 04:47:35 12° SE
[s.n.52668] 4.2 04:42:51 10° W 04:45:28 27° SSW 04:47:41 12° SE
Cosmos 1842 Rocket 3.6 04:41:02 10° S 04:45:31 59° ESE 04:49:54 10° NNE
[s.n.52666] 4.2 04:42:58 10° W 04:45:35 27° SSW 04:47:48 12° SE
[s.n.52663] 4.2 04:43:05 10° W 04:45:41 27° SSW 04:47:55 12° SE
[s.n.52662] 4.2 04:43:12 10° W 04:45:49 27° SSW 04:48:02 12° SE
[s.n.52664] 4.2 04:43:20 10° W 04:45:56 27° SSW 04:48:09 13° SE
[s.n.52661] 4.2 04:43:27 10° W 04:46:03 27° SSW 04:48:16 13° SE
[s.n.52660] 4.2 04:43:34 10° W 04:46:10 27° SSW 04:48:23 13° SE
[s.n.52656] 4.2 04:43:41 10° W 04:46:17 27° SSW 04:48:29 13° SE
[s.n.52658] 4.2 04:43:49 10° W 04:46:25 27° SSW 04:48:37 13° SE
[s.n.52659] 4.2 04:43:56 10° W 04:46:32 27° SSW 04:48:43 13° SE
[s.n.52657] 4.2 04:44:04 10° W 04:46:40 27° SSW 04:48:51 13° SE
SKYMED 2 4.1 04:42:30 10° N 04:46:51 64° W 04:51:16 10° SSW
H-2A R/B 4.3 04:46:09 10° S 04:49:45 37° WSW 04:53:20 10° NW
Cosmos 2322 Rocket 4.1 04:49:34 10° SSE 04:50:59 11° SE 04:51:57 10° SE
Cosmos 2369 4.1 04:47:24 10° SSW 04:52:50 41° SE 04:58:12 10° NE
Cosmos 1340 Rocket 2.8 04:49:37 10° N 04:53:37 67° E 04:57:43 10° SSE
SJ 16-02 3.4 04:52:32 10° SSE 04:52:55 11° SE 04:52:55 11° SE
Cosmos 2082 Rocket 3.0 04:49:58 10° NNE 04:54:52 31° ENE 04:59:05 13° SE
NOAA 11 4.5 04:50:33 10° S 04:56:03 72° WSW 05:01:32 10° NNW
USA 308 3.6 04:52:44 10° SW 04:56:40 35° SSE 04:59:17 18° ESE
Cosmos 2221 2.7 04:52:30 10° S 04:57:00 81° W 05:01:25 10° N
CBERS 1 LM4 rocket 4.3 04:52:53 10° SSE 04:57:43 70° ENE 05:02:36 10° N
SMAP 3.9 04:54:03 10° SE 04:58:10 29° E 05:02:13 10° NNE
Cosmos 1302 Rocket 4.0 04:56:01 10° NNW 05:01:15 83° ENE 05:06:35 10° SSE
H-2A R/B 4.2 05:04:51 11° SSE 05:04:51 11° SSE 05:05:09 10° SSE
Cosmos 1697 Rocket 2.6 04:58:19 10° SSW 05:04:02 79° ESE 05:09:44 10° NNE
Cosmos 1000 Rocket 4.5 05:01:03 10° N 05:07:09 65° E 05:13:21 10° SSE
Cosmos 2360 4.2 05:01:32 10° SSW 05:07:20 81° ESE 05:13:04 10° NNE
GENESIS II 4.4 05:04:11 10° SSW 05:07:49 44° SE 05:10:30 16° ENE
Meteor 1-31 Rocket 3.4 05:07:04 10° S 05:11:01 61° WSW 05:14:55 10° NNW
CZ-2C R/B 4.0 05:07:27 10° S 05:12:03 45° WSW 05:16:42 10° NW
Cosmos 1486 Rocket 4.2 05:09:25 10° SSW 05:14:41 51° ESE 05:19:54 10° NE
Cosmos 1939 Rocket 2.7 05:14:42 10° SSE 05:18:39 88° WSW 05:22:33 10° NNW
Lacrosse 5 3.4 05:15:38 10° SW 05:19:41 23° S 05:21:34 19° SE
Cosmos 1933 3.3 05:15:58 10° S 05:20:05 88° E 05:24:09 10° N
USA 305 3.1 05:16:05 10° SW 05:20:13 49° SSE 05:21:57 30° E
Cosmos 1992 Rocket 4.1 05:16:13 10° N 05:21:21 56° ENE 05:25:25 16° SSE
Cosmos 1782 2.7 05:18:42 10° S 05:22:44 72° E 05:26:41 10° NNE
CORIOLIS 4.5 05:19:33 10° SSE 05:24:51 46° E 05:30:06 10° N
COSMOS 2406 3.1 05:21:36 10° NNW 05:27:17 81° ENE 05:32:11 15° SSE
SL-16 R/B 3.4 05:26:34 10° S 05:30:51 23° SE 05:30:51 23° SE
Cosmos 2173 Rocket 4.1 05:25:21 10° S 05:31:48 80° W 05:38:05 10° N
BREEZE M DEB (TANK) 1.9 05:30:14 10° NW 05:32:09 61° NNE 05:32:09 61° NNE
Lacrosse 5 rocket 3.2 05:30:39 10° SSW 05:33:08 16° S 05:33:30 15° SSE
Cosmos 2016 Rocket 3.9 05:27:22 10° S 05:33:38 71° E 05:39:55 10° NNE
Cosmos 724 4.4 05:27:51 10° NW 05:34:00 84° SW 05:38:44 19° SSE
CZ-4B R/B 2.6 05:33:55 29° SSE 05:35:42 69° ENE 05:39:31 10° N
Lacrosse 4 Rocket 4.1 05:35:26 10° WSW 05:37:16 12° SW 05:39:08 10° SSW
Cosmos 2233 Rocket 4.1 05:35:17 10° S 05:41:24 49° ESE 05:47:30 10° NNE
Cosmos 1503 Rocket 4.0 05:38:51 10° SSW 05:43:59 53° ESE 05:46:48 26° NE
Cosmos 1802 Rocket 4.1 05:38:31 10° S 05:45:01 82° W 05:51:29 10° N
Cosmos 1864 Rocket 4.4 05:40:50 10° S 05:47:04 84° E 05:53:14 10° N
Meteor 2-3 Rocket 4.3 05:42:08 10° NNW 05:47:40 58° WSW 05:53:19 10° S
Cosmos 1833 Rocket 3.7 05:45:36 10° NW 05:51:01 44° WSW 05:56:13 11° SSE
SL-08 R/B 4.4 05:45:04 10° S 05:51:25 82° E 05:57:35 10° N
Cosmos 2278 3.7 05:46:17 10° SSW 05:51:58 61° ESE 05:54:46 30° NE
ATLAS 2AS CENTAUR R/B 3.8 05:46:13 10° SW 05:53:00 48° WNW 06:00:10 10° N
Cosmos 2151 3.9 05:48:52 10° NNW 05:53:06 50° WSW 05:57:22 10° S
H-2A R/B 1.9 05:48:39 10° SSE 05:53:37 89° WSW 05:58:34 10° NNW
CZ-4B DEB 4.5 05:53:33 43° E 05:53:56 44° E 05:59:09 10° N
ADEOS 4.1 05:50:59 10° S 05:56:12 59° WSW 06:01:21 10° NNW
Cosmos 2360 Rocket 4.0 05:52:56 10° S 05:54:40 15° SSE 05:54:40 15° SSE
RESURS DK-1 2.2 05:55:30 10° SSW 05:59:44 89° SE 06:00:20 65° NNE
USA 306 2.7 05:58:04 10° SW 06:02:19 85° SSE 06:02:20 85° SE
USA 307 2.8 06:01:39 10° SW 06:05:36 74° SSW 06:05:36 74° SSW
CZ-2D R/B 3.6 06:06:28 47° SSW 06:07:19 62° WSW 06:11:08 10° NNW
Meteor 2-6 Rocket 4.1 06:03:37 10° S 06:09:21 88° E 06:14:50 10° N
GEOS 3 Rocket 3.6 06:10:34 60° ENE 06:10:49 61° NE 06:15:59 10° NNW
USA 281 3.2 06:05:45 17° SSE 06:11:06 83° WSW 06:17:43 10° NNW
CZ-2C R/B 3.5 06:09:07 10° NNW 06:10:14 13° N 06:10:14 13° N
Cosmos 1862 4.1 06:20:09 10° NNW 06:23:28 49° WNW 06:23:28 49° WNW
USA 215 4.2 06:18:22 10° NNE 06:24:36 44° NW 06:30:52 10° WSW
ATLAS 3B CENTAUR R/B 4.3 06:19:45 10° NW 06:25:58 20° NNW 06:28:41 16° NNE
ARGOS 3.1 06:27:22 55° S 06:28:37 83° WSW 06:34:01 10° NNW
Cosmos 1980 Rocket 3.2 06:23:24 10° SW 06:28:45 44° WNW 06:34:02 10° N
SJ 16-02 3.4 06:28:40 10° SSW 06:29:55 18° SSW 06:29:55 18° SSW
USA 308 4.2 06:32:19 10° WSW 06:35:04 38° WSW 06:35:04 38° WSW
Cosmos 2322 Rocket 3.6 06:31:04 10° SSW 06:33:47 26° S 06:33:47 26° S
Cosmos 2082 Rocket 3.2 06:33:25 10° NW 06:38:47 43° WSW 06:40:57 30° S
Cosmos 2333 Rocket 4.4 06:34:30 10° S 06:35:14 13° S 06:35:14 13° S
Lacrosse 5 3.8 06:58:48 10° SW 07:00:46 22° SSW 07:00:46 22° SSW
SL-16 R/B 3.7 07:10:01 10° SSW 07:12:45 29° SW 07:12:45 29° SW
